Time,TemperatureF,DewpointF,PressureIn,WindDirection,WindDirectionDegrees,WindSpeedMPH,WindSpeedGustMPH,Humidity,HourlyPrecipIn,Conditions,Clouds,dailyrainin,SoftwareType,DateUTC
2013-09-19 00:05:00,62.0,60.0,30.18,NW,309,0.0,0.0,94,0.00,,,0.00,weatherlink.com 1.10,2013-09-19 04:05:00,
2013-09-19 00:20:00,61.7,60.0,30.18,NW,309,0.0,0.0,94,0.00,,,0.00,weatherlink.com 1.10,2013-09-19 04:20:00,
2013-09-19 00:35:00,61.3,60.0,30.18,NW,309,0.0,0.0,95,0.00,,,0.00,weatherlink.com 1.10,2013-09-19 04:35:00,
2013-09-19 00:50:00,60.9,60.0,30.18,NW,309,0.0,1.0,95,0.00,,,0.00,weatherlink.com 1.10,2013-09-19 04:50:00,
2013-09-19 01:05:00,60.5,59.0,30.18,NW,309,0.0,0.0,95,0.00,,,0.00,weatherlink.com 1.10,2013-09-19 05:05:00,
2013-09-19 01:20:00,60.4,59.0,30.17,NW,309,0.0,0.0,96,0.00,,,0.00,weatherlink.com 1.10,2013-09-19 05:20:00,
2013-09-19 01:35:00,60.6,60.0,30.17,NW,309,0.0,0.0,96,0.00,,,0.00,weatherlink.com 1.10,2013-09-19 05:35:00,
2013-09-19 01:50:00,60.7,60.0,30.17,NW,309,0.0,0.0,96,0.00,,,0.00,weatherlink.com 1.10,2013-09-19 05:50:00,
2013-09-19 02:05:00,60.8,60.0,30.17,NW,309,0.0,0.0,96,0.00,,,0.00,weatherlink.com 1.10,2013-09-19 06:05:00,
2013-09-19 02:20:00,60.9,60.0,30.17,NW,309,0.0,0.0,96,0.00,,,0.00,weatherlink.com 1.10,2013-09-19 06:20:00,
2013-09-19 02:35:00,61.0,60.0,30.16,NW,309,0.0,0.0,96,0.00,,,0.00,weatherlink.com 1.10,2013-09-19 06:35:00,
2013-09-19 02:50:00,60.7,60.0,30.16,NW,309,0.0,1.0,96,0.00,,,0.00,weatherlink.com 1.10,2013-09-19 06:50:00,
2013-09-19 03:05:00,60.3,59.0,30.15,NW,309,0.0,1.0,96,0.00,,,0.00,weatherlink.com 1.10,2013-09-19 07:05:00,
2013-09-19 03:20:00,59.8,59.0,30.15,NW,309,0.0,0.0,96,0.00,,,0.00,weatherlink.com 1.10,2013-09-19 07:20:00,
2013-09-19 03:35:00,59.5,58.0,30.15,NW,309,0.0,0.0,96,0.00,,,0.00,weatherlink.com 1.10,2013-09-19 07:35:00,
2013-09-19 03:50:00,59.2,58.0,30.15,NW,309,0.0,0.0,97,0.00,,,0.00,weatherlink.com 1.10,2013-09-19 07:50:00,
2013-09-19 04:05:00,58.9,58.0,30.15,NW,309,0.0,0.0,97,0.00,,,0.00,weatherlink.com 1.10,2013-09-19 08:05:00,
2013-09-19 04:20:00,58.6,58.0,30.15,NW,309,0.0,1.0,97,0.00,,,0.00,weatherlink.com 1.10,2013-09-19 08:20:00,
2013-09-19 04:35:00,58.2,57.0,30.15,NW,309,0.0,0.0,97,0.00,,,0.00,weatherlink.com 1.10,2013-09-19 08:35:00,
2013-09-19 04:50:00,58.0,57.0,30.15,NW,309,0.0,0.0,97,0.00,,,0.00,weatherlink.com 1.10,2013-09-19 08:50:00,
2013-09-19 05:05:00,57.8,57.0,30.15,NW,309,0.0,0.0,97,0.00,,,0.00,weatherlink.com 1.10,2013-09-19 09:05:00,
2013-09-19 05:20:00,57.6,57.0,30.15,NW,309,0.0,0.0,97,0.00,,,0.00,weatherlink.com 1.10,2013-09-19 09:20:00,
2013-09-19 05:35:00,57.6,57.0,30.16,NW,309,0.0,0.0,97,0.00,,,0.00,weatherlink.com 1.10,2013-09-19 09:35:00,
2013-09-19 05:50:00,57.6,57.0,30.16,NW,309,0.0,0.0,97,0.00,,,0.00,weatherlink.com 1.10,2013-09-19 09:50:00,
2013-09-19 06:05:00,57.5,57.0,30.16,NW,309,0.0,0.0,97,0.00,,,0.00,weatherlink.com 1.10,2013-09-19 10:05:00,
2013-09-19 06:20:00,57.5,57.0,30.16,NW,309,0.0,0.0,97,0.00,,,0.00,weatherlink.com 1.10,2013-09-19 10:20:00,
2013-09-19 06:35:00,57.2,56.0,30.15,NW,309,0.0,0.0,97,0.00,,,0.00,weatherlink.com 1.10,2013-09-19 10:35:00,
2013-09-19 06:50:00,57.0,56.0,30.15,NW,309,0.0,0.0,97,0.00,,,0.00,weatherlink.com 1.10,2013-09-19 10:50:00,
2013-09-19 07:05:00,56.8,56.0,30.15,NW,309,0.0,0.0,97,0.00,,,0.00,weatherlink.com 1.10,2013-09-19 11:05:00,
2013-09-19 07:20:00,56.7,56.0,30.16,NW,309,0.0,0.0,97,0.00,,,0.00,weatherlink.com 1.10,2013-09-19 11:20:00,
2013-09-19 07:35:00,56.8,56.0,30.16,NW,309,0.0,0.0,98,0.00,,,0.00,weatherlink.com 1.10,2013-09-19 11:35:00,
2013-09-19 07:51:00,57.0,57.0,30.16,NW,309,0.0,0.0,98,0.00,,,0.00,weatherlink.com 1.10,2013-09-19 11:51:00,
2013-09-19 08:06:00,57.1,57.0,30.17,NW,309,0.0,0.0,98,0.00,,,0.00,weatherlink.com 1.10,2013-09-19 12:06:00,
2013-09-19 08:21:00,57.6,57.0,30.17,NW,309,0.0,0.0,98,0.00,,,0.00,weatherlink.com 1.10,2013-09-19 12:21:00,
2013-09-19 08:36:00,57.9,57.0,30.17,NW,309,0.0,0.0,98,0.00,,,0.00,weatherlink.com 1.10,2013-09-19 12:36:00,
2013-09-19 08:51:00,58.5,58.0,30.17,NW,309,0.0,0.0,98,0.00,,,0.00,weatherlink.com 1.10,2013-09-19 12:51:00,
2013-09-19 09:06:00,59.5,59.0,30.17,NW,309,0.0,1.0,98,0.00,,,0.00,weatherlink.com 1.10,2013-09-19 13:06:00,
2013-09-19 09:21:00,60.4,60.0,30.17,NW,309,0.0,1.0,98,0.00,,,0.00,weatherlink.com 1.10,2013-09-19 13:21:00,
2013-09-19 09:36:00,60.8,60.0,30.17,NW,309,0.0,1.0,98,0.00,,,0.00,weatherlink.com 1.10,2013-09-19 13:36:00,
2013-09-19 09:51:00,62.5,61.0,30.17,NW,309,0.0,1.0,94,0.00,,,0.00,weatherlink.com 1.10,2013-09-19 13:51:00,
2013-09-19 10:06:00,63.6,61.0,30.18,NW,309,0.0,1.0,91,0.00,,,0.00,weatherlink.com 1.10,2013-09-19 14:06:00,
2013-09-19 10:21:00,64.5,61.0,30.18,NE,34,0.0,1.0,87,0.00,,,0.00,weatherlink.com 1.10,2013-09-19 14:21:00,
2013-09-19 10:36:00,65.6,62.0,30.17,East,85,0.0,2.0,87,0.00,,,0.00,weatherlink.com 1.10,2013-09-19 14:36:00,
2013-09-19 10:51:00,66.5,63.0,30.18,ESE,107,0.0,1.0,87,0.00,,,0.00,weatherlink.com 1.10,2013-09-19 14:51:00,
2013-09-19 11:06:00,67.2,63.0,30.17,East,80,0.0,1.0,86,0.00,,,0.00,weatherlink.com 1.10,2013-09-19 15:06:00,
2013-09-19 11:21:00,68.0,63.0,30.17,East,82,0.0,1.0,85,0.00,,,0.00,weatherlink.com 1.10,2013-09-19 15:21:00,
2013-09-19 11:36:00,68.8,64.0,30.17,ENE,75,0.0,1.0,84,0.00,,,0.00,weatherlink.com 1.10,2013-09-19 15:36:00,
2013-09-19 11:51:00,70.0,64.0,30.17,NE,44,0.0,2.0,81,0.00,,,0.00,weatherlink.com 1.10,2013-09-19 15:51:00,
2013-09-19 12:06:00,70.5,65.0,30.16,SE,130,0.0,1.0,82,0.00,,,0.00,weatherlink.com 1.10,2013-09-19 16:06:00,
2013-09-19 12:21:00,71.1,65.0,30.16,NNE,23,0.0,1.0,80,0.00,,,0.00,weatherlink.com 1.10,2013-09-19 16:21:00,
2013-09-19 12:36:00,72.7,66.0,30.16,SE,134,0.0,2.0,79,0.00,,,0.00,weatherlink.com 1.10,2013-09-19 16:36:00,
2013-09-19 12:51:00,75.0,66.0,30.15,NNW,346,0.0,2.0,73,0.00,,,0.00,weatherlink.com 1.10,2013-09-19 16:51:00,
2013-09-19 13:06:00,77.1,67.0,30.15,ENE,72,0.0,2.0,71,0.00,,,0.00,weatherlink.com 1.10,2013-09-19 17:06:00,
2013-09-19 13:21:00,77.6,68.0,30.14,East,97,0.0,2.0,71,0.00,,,0.00,weatherlink.com 1.10,2013-09-19 17:21:00,
2013-09-19 13:36:00,78.8,69.0,30.13,NW,304,0.0,2.0,71,0.00,,,0.00,weatherlink.com 1.10,2013-09-19 17:36:00,
2013-09-19 14:06:00,80.4,68.0,30.12,West,263,1.0,2.0,65,0.00,,,0.00,weatherlink.com 1.10,2013-09-19 18:06:00,
2013-09-19 14:21:00,81.0,69.0,30.11,East,86,0.0,1.0,68,0.00,,,0.00,weatherlink.com 1.10,2013-09-19 18:21:00,
2013-09-19 14:37:00,83.2,70.0,30.11,SE,143,1.0,1.0,65,0.00,,,0.00,weatherlink.com 1.10,2013-09-19 18:37:00,
2013-09-19 14:52:00,80.9,68.0,30.10,NW,323,0.0,1.0,66,0.00,,,0.00,weatherlink.com 1.10,2013-09-19 18:52:00,
2013-09-19 15:07:00,78.6,69.0,30.10,NW,323,0.0,1.0,72,0.00,,,0.00,weatherlink.com 1.10,2013-09-19 19:07:00,
2013-09-19 15:22:00,77.0,68.0,30.10,NW,323,0.0,0.0,74,0.00,,,0.00,weatherlink.com 1.10,2013-09-19 19:22:00,
2013-09-19 15:37:00,75.2,68.0,30.10,ESE,117,0.0,3.0,79,0.00,,,0.00,weatherlink.com 1.10,2013-09-19 19:37:00,
2013-09-19 15:52:00,73.8,68.0,30.09,ESE,114,3.0,4.0,82,0.00,,,0.00,weatherlink.com 1.10,2013-09-19 19:52:00,
2013-09-19 16:07:00,73.6,68.0,30.09,ENE,75,1.0,1.0,83,0.00,,,0.00,weatherlink.com 1.10,2013-09-19 20:07:00,
2013-09-19 16:22:00,74.4,69.0,30.09,SE,138,0.0,1.0,82,0.00,,,0.00,weatherlink.com 1.10,2013-09-19 20:22:00,
2013-09-19 16:37:00,74.9,69.0,30.08,SE,132,0.0,1.0,82,0.00,,,0.00,weatherlink.com 1.10,2013-09-19 20:37:00,
2013-09-19 16:52:00,75.5,70.0,30.08,SE,132,0.0,0.0,83,0.00,,,0.00,weatherlink.com 1.10,2013-09-19 20:52:00,
2013-09-19 17:07:00,75.7,70.0,30.08,SE,133,0.0,1.0,82,0.00,,,0.00,weatherlink.com 1.10,2013-09-19 21:07:00,
2013-09-19 17:22:00,75.7,70.0,30.08,SE,132,0.0,0.0,82,0.00,,,0.00,weatherlink.com 1.10,2013-09-19 21:22:00,
2013-09-19 17:37:00,75.3,70.0,30.08,North,356,0.0,1.0,82,0.00,,,0.00,weatherlink.com 1.10,2013-09-19 21:37:00,
2013-09-19 17:52:00,75.7,70.0,30.07,North,355,0.0,1.0,81,0.00,,,0.00,weatherlink.com 1.10,2013-09-19 21:52:00,
2013-09-19 18:07:00,75.8,70.0,30.07,North,356,0.0,1.0,82,0.00,,,0.00,weatherlink.com 1.10,2013-09-19 22:07:00,
2013-09-19 18:22:00,75.1,70.0,30.07,North,356,0.0,0.0,83,0.00,,,0.00,weatherlink.com 1.10,2013-09-19 22:22:00,
2013-09-19 18:37:00,74.6,69.0,30.08,North,356,0.0,0.0,83,0.00,,,0.00,weatherlink.com 1.10,2013-09-19 22:37:00,
2013-09-19 18:52:00,73.7,69.0,30.08,North,355,0.0,0.0,85,0.00,,,0.00,weatherlink.com 1.10,2013-09-19 22:52:00,
2013-09-19 19:07:00,73.1,69.0,30.08,North,356,0.0,0.0,86,0.00,,,0.00,weatherlink.com 1.10,2013-09-19 23:07:00,
2013-09-19 19:22:00,72.1,68.0,30.08,North,356,0.0,0.0,88,0.00,,,0.00,weatherlink.com 1.10,2013-09-19 23:22:00,
2013-09-19 19:37:00,71.2,68.0,30.07,North,356,0.0,0.0,90,0.00,,,0.00,weatherlink.com 1.10,2013-09-19 23:37:00,
2013-09-19 19:52:00,70.3,68.0,30.07,North,356,0.0,0.0,91,0.00,,,0.00,weatherlink.com 1.10,2013-09-19 23:52:00,
2013-09-19 20:07:00,69.7,67.0,30.07,North,356,0.0,0.0,92,0.00,,,0.00,weatherlink.com 1.10,2013-09-20 00:07:00,
2013-09-19 20:22:00,69.1,67.0,30.07,North,356,0.0,0.0,93,0.00,,,0.00,weatherlink.com 1.10,2013-09-20 00:22:00,
2013-09-19 20:37:00,68.4,67.0,30.07,North,356,0.0,0.0,94,0.00,,,0.00,weatherlink.com 1.10,2013-09-20 00:37:00,
2013-09-19 20:52:00,67.8,66.0,30.08,North,355,0.0,0.0,95,0.00,,,0.00,weatherlink.com 1.10,2013-09-20 00:52:00,
2013-09-19 21:07:00,67.2,66.0,30.08,North,356,0.0,0.0,95,0.00,,,0.00,weatherlink.com 1.10,2013-09-20 01:07:00,
2013-09-19 21:22:00,66.9,66.0,30.08,North,356,0.0,0.0,96,0.00,,,0.00,weatherlink.com 1.10,2013-09-20 01:22:00,
2013-09-19 21:37:00,66.9,66.0,30.08,North,356,0.0,0.0,96,0.00,,,0.00,weatherlink.com 1.10,2013-09-20 01:37:00,
2013-09-19 21:52:00,66.9,66.0,30.08,North,356,0.0,0.0,96,0.00,,,0.00,weatherlink.com 1.10,2013-09-20 01:52:00,
2013-09-19 22:07:00,66.7,66.0,30.08,North,356,0.0,0.0,96,0.00,,,0.00,weatherlink.com 1.10,2013-09-20 02:07:00,
2013-09-19 22:22:00,66.4,65.0,30.08,North,356,0.0,0.0,96,0.00,,,0.00,weatherlink.com 1.10,2013-09-20 02:22:00,
2013-09-19 22:37:00,66.1,65.0,30.08,North,356,0.0,0.0,96,0.00,,,0.00,weatherlink.com 1.10,2013-09-20 02:37:00,
2013-09-19 22:52:00,66.0,65.0,30.08,North,356,0.0,0.0,97,0.00,,,0.00,weatherlink.com 1.10,2013-09-20 02:52:00,
2013-09-19 23:07:00,65.8,65.0,30.08,North,356,0.0,0.0,96,0.00,,,0.00,weatherlink.com 1.10,2013-09-20 03:07:00,
2013-09-19 23:22:00,65.7,65.0,30.08,North,356,0.0,0.0,97,0.00,,,0.00,weatherlink.com 1.10,2013-09-20 03:22:00,
2013-09-19 23:37:00,65.6,65.0,30.08,North,356,0.0,0.0,97,0.00,,,0.00,weatherlink.com 1.10,2013-09-20 03:37:00,
2013-09-19 23:52:00,65.5,65.0,30.07,North,356,0.0,0.0,97,0.00,,,0.00,weatherlink.com 1.10,2013-09-20 03:52:00,